Tracking 35334 objects as of 12-Sep-2026
HD Live streaming from Space Station
objects crossing your sky now

KL-BETA B

Track KL-BETA B now!
10-day predictions


NORAD ID: 49060
Int'l Code: 2021-070B
Launch date: August 4, 2021
Source: People's Republic of China (PRC)
Launch site: Taiyaun Space Center, China (TSC)
Your satellite tracking list
Your tracking list is empty




NASA's NSSDC Master Catalog

Two Line Element Set (TLE):
1 49060U 21070B   26255.32568626  .00000146  00000-0  99035-4 0  9998
2 49060  89.0100 209.0726 0003654 180.5778 179.5394 13.94731924260110
Source of the keplerian elements: AFSPC